Terminal Aerodrome Forecast
Issued by NWS

Home | Current Version | Previous Version | Text Only | Print | Product List | Glossary On
Versions: 1 2 3 4 5 6 7 8 9 10 11 12 13 14 15 16 17
000
FTUS45 KRIW 022327
TAFJAC
TAF
KJAC 022327Z 0300/0324 21014G20KT P6SM SCT090
     FM030100 20010KT P6SM FEW100
     FM030500 VRB07KT P6SM VCSH SCT070 BKN080
     FM031000 VRB06KT P6SM SCT080 SCT150
     FM031500 19011KT P6SM FEW150 SCT200
     FM031800 20015G25KT P6SM FEW070 BKN200
      AMD LTD TO CLD VIS AND WIND=

USA.gov is the U.S. government's official web portal to all federal, state and local government web resources and services.